Manitowoc, WI

11:57 PM CST on February 25, 2017 (GMT -0600)
Manitowoc County

Weather History for KMTW - March, 2014

Change the Weather History Date:

Thursday, March 27, 2014

  Actual Average Record
Temperature  
Mean Temperature 35 °F -  
Max Temperature 37 °F 43 °F 71 °F (1998)
Min Temperature 33 °F 29 °F 4 °F (1964)
Degree Days  
Heating Degree Days 30    
Moisture  
Dew Point 33 °F    
Average Humidity 92    
Maximum Humidity 100    
Minimum Humidity 73    
Precipitation  
Precipitation 0.50 in - - ()
Sea Level Pressure  
Sea Level Pressure 29.69 in    
Wind  
Wind Speed 13 mph (South)    
Max Wind Speed 18 mph    
Max Gust Speed 25 mph    
Visibility 4 miles    
Events Rain    
Averages and records for this station are not official NWS values.
T = Trace of Precipitation, MM = Missing Value Source: NWS Daily Summary

Daily Weather History Graph

Daily Weather History Graph

Search for Another Location

Airport or City:

Trip Planner

Search our weather history database for the weather conditions in past years. The results will help you decide how hot, cold, wet, or windy it might be!

Date:

Astronomy

Mar. 27, 2014 Rise Set
Actual Time 6:41 AM CDT 7:11 PM CDT
Civil Twilight 6:12 AM CDT 7:40 PM CDT
Nautical Twilight 5:37 AM CDT 8:15 PM CDT
Astronomical Twilight 5:02 AM CDT 8:50 PM CDT
Moon 4:39 AM CDT (3/27) 3:52 PM CDT (3/27)
Length of Visible Light 13h 28m
Length of Day
12h 30m
Waning Crescent, 13% of the Moon is Illuminated
Mar 27
Waning Crescent
Mar 30
New
Apr 7
First Quarter
Apr 15
Full
Apr 22
Last Quarter

Hourly Weather History & Observations

Time (CDT) Temp. Windchill Dew Point Humidity Pressure Visibility Wind Dir Wind Speed Gust Speed Precip Events Conditions
12:56 AM 33.1 °F 23.4 °F 28.0 °F 82% 29.99 in 10.0 mi SSE 13.8 mph - 0.00 in   Overcast
1:56 AM 34.0 °F 24.2 °F 28.0 °F 79% 29.97 in 10.0 mi SSE 15.0 mph - 0.00 in   Overcast
2:56 AM 34.0 °F 25.0 °F 28.0 °F 79% 29.93 in 10.0 mi SSE 12.7 mph - N/A   Overcast
3:56 AM 35.1 °F 25.5 °F 28.0 °F 76% 29.90 in 10.0 mi South 15.0 mph - N/A   Overcast
4:56 AM 35.1 °F 25.5 °F 28.0 °F 76% 29.86 in 10.0 mi South 15.0 mph - 0.00 in   Overcast
5:56 AM 35.1 °F 26.9 °F 28.9 °F 78% 29.86 in 10.0 mi South 11.5 mph - N/A   Overcast
6:56 AM 37.0 °F 28.5 °F 28.9 °F 73% 29.85 in 10.0 mi SSW 13.8 mph - N/A   Overcast
7:56 AM 36.0 °F 28.5 °F 30.9 °F 82% 29.85 in 10.0 mi South 10.4 mph - 0.00 in   Overcast
8:48 AM 35.6 °F 25.5 °F 32.0 °F 87% 29.75 in 6.0 mi South 17.3 mph - 0.00 in   Overcast
8:56 AM 35.1 °F 25.9 °F 33.1 °F 92% 29.83 in 5.0 mi South 13.8 mph 21.9 mph 0.00 in   Overcast
9:21 AM 33.8 °F 22.8 °F 32.0 °F 93% 29.75 in 4.0 mi South 18.4 mph 25.3 mph N/A   Overcast
9:56 AM 34.0 °F 23.8 °F 32.0 °F 92% 29.82 in 3.0 mi South 16.1 mph 25.3 mph N/A   Overcast
10:33 AM 33.8 °F 23.5 °F 32.0 °F 93% 29.74 in 2.5 mi South 16.1 mph 24.2 mph N/A   Overcast
10:56 AM 34.0 °F 23.0 °F 32.0 °F 92% 29.81 in 2.5 mi South 18.4 mph - N/A   Overcast
11:37 AM 33.8 °F 23.5 °F 33.8 °F 100% 29.72 in 3.0 mi South 16.1 mph - N/A   Overcast
11:56 AM 35.1 °F 24.8 °F 33.1 °F 92% 29.78 in 4.0 mi South 17.3 mph 24.2 mph N/A   Overcast
12:56 PM 35.1 °F 25.5 °F 33.1 °F 92% 29.75 in 6.0 mi South 15.0 mph 24.2 mph N/A   Overcast
1:15 PM 35.6 °F 25.9 °F 33.8 °F 93% 29.67 in 6.0 mi South 16.1 mph 23.0 mph N/A   Overcast
1:56 PM 36.0 °F 27.1 °F 34.0 °F 93% 29.72 in 6.0 mi South 13.8 mph - N/A   Overcast
2:52 PM 35.6 °F 27.5 °F 33.8 °F 93% 29.61 in 1.8 mi South 11.5 mph - N/A   Overcast
2:56 PM 36.0 °F 28.0 °F 34.0 °F 93% 29.69 in 1.8 mi South 11.5 mph - 0.00 in   Overcast
3:27 PM 35.6 °F 26.2 °F 33.8 °F 93% 29.61 in 1.2 mi South 15.0 mph - 0.00 in   Overcast
3:34 PM 35.6 °F 26.6 °F 33.8 °F 93% 29.60 in 1.0 mi South 13.8 mph - 0.00 in Rain Light Rain
3:56 PM 35.1 °F 25.2 °F 34.0 °F 96% 29.67 in 1.2 mi South 16.1 mph - 0.01 in Rain Rain
4:33 PM 35.6 °F 25.9 °F 33.8 °F 93% 29.58 in 2.0 mi South 16.1 mph 23.0 mph 0.02 in Rain Light Rain
4:56 PM 35.1 °F 26.4 °F 34.0 °F 96% 29.63 in 2.0 mi South 12.7 mph 19.6 mph 0.03 in Rain Light Rain
5:08 PM 35.6 °F 26.6 °F 33.8 °F 93% 29.55 in 1.8 mi South 13.8 mph - 0.00 in Rain Light Rain
5:56 PM 35.1 °F 25.9 °F 34.0 °F 96% 29.60 in 1.2 mi SSE 13.8 mph - 0.01 in Rain Light Rain
6:42 PM 35.6 °F 27.1 °F 33.8 °F 93% 29.51 in 1.0 mi SSE 12.7 mph - 0.02 in Rain Light Rain
6:56 PM 35.1 °F 26.4 °F 34.0 °F 96% 29.58 in 1.0 mi SSE 12.7 mph 19.6 mph 0.02 in Rain Light Rain
7:12 PM 35.6 °F 27.1 °F 35.6 °F 100% 29.50 in 2.0 mi SSE 12.7 mph - 0.00 in Rain Light Rain
7:49 PM 35.6 °F 27.5 °F 35.6 °F 100% 29.49 in 4.0 mi SSE 11.5 mph - 0.11 in Rain Rain
7:56 PM 35.1 °F 26.9 °F 35.1 °F 100% 29.55 in 4.0 mi South 11.5 mph - 0.11 in Rain Light Rain
8:56 PM 36.0 °F 33.3 °F 35.1 °F 97% 29.56 in 4.0 mi SSW 3.5 mph - 0.12 in Rain Heavy Rain
9:56 PM 35.1 °F 31.0 °F 35.1 °F 100% 29.54 in 2.0 mi East 4.6 mph - 0.10 in Rain Light Rain
10:28 PM 35.6 °F - 35.6 °F 100% 29.46 in 1.8 mi Calm Calm - 0.04 in Rain Light Rain
10:56 PM 35.1 °F - 35.1 °F 100% 29.52 in 1.5 mi Calm Calm - 0.06 in Rain Rain
11:10 PM 35.6 °F 32.8 °F 35.6 °F 100% 29.44 in 1.0 mi NNE 3.5 mph - 0.01 in Rain Light Rain
11:56 PM 35.1 °F 32.2 °F 35.1 °F 100% 29.51 in 1.0 mi North 3.5 mph - 0.04 in Rain Light Rain